Date,TemperatureHighF,TemperatureAvgF,TemperatureLowF,DewpointHighF,DewpointAvgF,DewpointLowF,HumidityHigh,HumidityAvg,HumidityLow,PressureMaxIn,PressureMinIn,WindSpeedMaxMPH,WindSpeedAvgMPH,GustSpeedMaxMPH,PrecipitationSumIn
2013-1-1,43.0,40.2,36.1,23.1,21.0,17.6,53,46,42,30.02,29.90,15,5,15,0.00
2013-1-2,36.0,31.8,26.2,17.7,11.6,7.8,51,43,36,30.23,29.99,15,5,15,0.00
2013-1-3,36.9,30.0,23.2,13.8,11.2,8.6,56,45,36,30.26,30.14,13,3,13,0.00
2013-1-4,40.3,34.6,28.8,18.1,15.1,12.5,54,45,38,30.20,30.08,23,7,23,0.00
2013-1-5,41.5,35.6,31.5,23.4,16.6,12.9,58,46,38,30.38,30.11,14,4,14,0.00
2013-1-6,49.3,41.5,30.9,30.8,24.1,20.3,80,52,34,30.20,30.02,15,4,15,0.00
2013-1-7,45.5,39.2,28.2,23.6,21.2,17.5,65,49,41,30.43,30.14,20,5,20,0.39
2013-1-8,35.6,28.7,25.5,24.7,20.0,17.3,77,70,64,30.41,30.38,10,2,10,0.00
2013-1-9,48.6,45.0,32.9,37.2,32.4,27.4,80,62,51,30.38,30.23,12,3,12,0.00
2013-1-10,50.0,43.2,37.8,30.2,22.9,19.1,63,45,35,30.58,30.35,15,4,15,0.00
2013-1-11,45.5,41.0,35.4,42.4,31.8,23.8,95,71,51,30.49,30.08,9,2,9,0.28
2013-1-12,56.7,47.3,42.8,44.0,42.0,39.2,96,83,59,30.17,30.08,7,1,7,0.00
2013-1-13,44.2,42.8,41.0,42.7,40.2,37.4,97,90,85,30.11,30.05,7,2,7,0.00
2013-1-14,55.9,49.6,41.2,54.4,35.7,27.4,97,60,43,30.29,30.11,13,6,13,0.24
2013-1-15,41.7,40.2,37.6,37.5,32.2,25.1,89,74,54,30.35,30.20,9,3,9,0.28
2013-1-16,40.6,39.2,36.0,37.9,36.0,32.8,90,88,87,30.23,29.84,13,2,13,0.35
2013-1-17,44.4,41.4,38.1,39.2,25.4,20.7,91,54,42,30.11,29.96,13,4,13,0.00
2013-1-18,38.5,33.2,28.6,23.5,12.3,5.9,60,42,33,30.49,30.05,20,6,20,0.00
2013-1-19,50.7,40.2,29.7,25.2,19.4,8.8,60,44,33,30.41,29.93,15,7,15,0.00
2013-1-20,55.8,43.3,34.0,26.8,19.3,8.5,59,39,24,30.08,29.79,28,8,28,0.00
2013-1-21,38.7,32.6,28.2,21.7,12.3,6.1,57,43,35,30.11,29.84,22,6,22,0.00
2013-1-22,28.6,20.1,14.9,6.5,-2.8,-6.2,40,36,33,30.29,29.93,23,11,23,0.00
2013-1-23,23.9,18.4,13.3,0.2,-3.5,-6.7,42,37,33,30.35,30.14,17,6,17,0.00
2013-1-24,26.1,20.6,15.6,8.5,2.7,-2.2,67,47,34,30.49,30.11,23,7,23,0.00
2013-1-25,24.4,20.3,16.3,12.6,3.7,-3.1,68,49,36,30.49,30.08,10,3,10,0.00
2013-1-26,32.0,25.1,20.1,13.7,11.3,8.9,69,56,43,30.41,30.08,15,4,15,0.00
2013-1-27,36.7,27.2,18.3,16.3,12.3,9.9,74,55,36,30.58,30.41,9,2,9,0.00
2013-1-28,38.7,34.3,27.9,36.0,28.8,16.1,91,81,56,30.49,30.05,10,3,10,0.12
2013-1-29,61.3,46.4,33.4,46.2,39.3,30.9,94,78,51,30.14,29.99,10,3,10,0.00
2013-1-30,68.2,54.6,43.7,59.2,51.6,39.5,100,90,64,29.99,29.23,26,5,26,1.69
2013-1-31,58.5,42.8,30.2,58.5,23.4,5.5,100,49,33,29.90,29.14,32,13,32,0.75